Location: Newark
(41.0420°N, 28.9376°E)
Time: 08:42:01
(UTC+00:00)

X-37B - Visible Passes

Search period start: 01 October 2020 00:00
Search period end: 11 October 2020 00:00
Orbit: 386 x 387 km, 45.0° (Epoch: 18 September)

Date Brightness Start Highest point End Pass type
(mag) Time Alt. Az. Time Alt. Az. Time Alt. Az.
01 Oct 2.1 16:59:36 10° SSW 17:01:49 21° SSE 17:01:49 21° SSE visible
02 Oct 2.1 17:36:46 10° WSW 17:38:37 31° SW 17:38:37 31° SW visible
03 Oct 1.2 16:38:26 10° SW 16:41:24 38° SSE 16:42:58 22° E visible
03 Oct 3.9 18:14:53 10° W 18:15:15 13° W 18:15:15 13° W visible
04 Oct 0.6 17:16:12 10° WSW 17:19:22 74° NNW 17:19:29 72° N visible
05 Oct 0.6 16:17:38 10° WSW 16:20:47 69° SSE 16:23:38 12° ENE visible
05 Oct 3.2 17:54:31 10° W 17:55:54 22° WNW 17:55:54 22° WNW visible
06 Oct 1.2 16:55:46 10° W 16:58:52 51° NNW 16:59:59 32° NE visible
07 Oct 0.7 15:57:04 10° WSW 16:00:14 74° NNW 16:03:25 10° ENE visible
07 Oct 2.3 17:34:07 10° WNW 17:36:16 31° NW 17:36:16 31° NW visible
08 Oct 1.5 16:35:23 10° W 16:38:25 41° N 16:40:16 20° NE visible
08 Oct 4.1 18:12:19 10° WNW 18:12:31 11° WNW 18:12:31 11° WNW visible
09 Oct 1.6 17:13:41 10° WNW 17:16:30 38° N 17:16:30 38° N visible
10 Oct 1.6 16:15:00 10° WNW 16:17:59 37° N 16:20:29 14° ENE visible
10 Oct 3.5 17:51:46 10° WNW 17:52:44 18° WNW 17:52:44 18° WNW visible
